Date,TemperatureHighF,TemperatureAvgF,TemperatureLowF,DewpointHighF,DewpointAvgF,DewpointLowF,HumidityHigh,HumidityAvg,HumidityLow,PressureMaxIn,PressureMinIn,WindSpeedMaxMPH,WindSpeedAvgMPH,GustSpeedMaxMPH,PrecipitationSumIn
2013-1-1,14,8,2,8,2,-2,86,78,66,30.34,30.18,4,1,7,0.00
2013-1-2,23,16,6,19,11,2,88,80,72,30.20,30.05,10,3,13,0.00
2013-1-3,26,20,9,24,17,6,93,87,80,30.28,30.07,7,2,10,0.00
2013-1-4,31,20,8,22,15,6,90,83,70,30.23,30.13,13,5,16,0.01
2013-1-5,34,27,18,33,25,16,95,91,80,30.20,29.88,14,6,19,0.21
2013-1-6,33,21,14,30,17,11,90,85,80,30.29,29.88,6,2,12,0.01
2013-1-7,36,25,13,28,21,10,90,84,72,30.27,30.04,15,5,20,0.02
2013-1-8,37,32,25,32,28,23,92,87,82,30.07,29.93,15,6,21,0.19
2013-1-9,38,33,27,32,28,23,90,81,67,30.44,29.95,13,3,17,0.04
2013-1-10,41,32,25,36,28,23,97,86,61,30.45,29.78,11,2,13,0.40
2013-1-11,47,41,36,45,40,36,99,97,91,29.78,29.56,13,4,16,0.03
2013-1-12,49,32,20,45,28,18,92,85,76,29.98,29.57,12,4,19,0.00
2013-1-13,20,16,9,18,11,5,92,80,70,30.24,29.88,5,2,8,0.02
2013-1-14,24,13,4,13,8,1,89,79,56,30.45,30.25,5,1,6,0.01
2013-1-15,27,18,11,17,12,7,87,79,62,30.42,30.10,7,2,10,0.00
2013-1-16,34,25,14,31,20,9,94,81,67,30.09,29.80,15,4,19,0.00
2013-1-17,32,22,16,29,15,7,90,72,54,30.38,30.05,4,1,12,0.00
2013-1-18,42,32,18,34,26,15,87,81,71,30.39,29.84,15,7,24,0.00
2013-1-19,47,37,17,37,30,9,84,76,64,29.99,29.66,13,7,21,0.00
2013-1-20,16,12,8,8,4,1,77,70,60,30.31,30.01,5,2,12,0.00
2013-1-21,11,5,0,6,-4,-7,82,68,55,30.30,30.17,7,3,10,0.00
2013-1-22,10,4,-4,-1,-5,-10,79,69,55,30.41,30.30,8,2,11,0.00
2013-1-23,21,14,7,15,7,-1,86,75,64,30.42,30.11,9,4,13,0.00
2013-1-24,19,10,2,9,0,-6,73,65,49,30.65,30.32,9,2,14,0.00
2013-1-25,31,21,15,19,13,8,89,73,55,30.29,29.93,11,5,15,0.00
2013-1-26,26,18,7,15,9,3,85,70,49,30.38,30.20,9,2,12,0.00
2013-1-27,35,29,23,34,24,15,97,84,68,30.31,29.79,13,8,19,0.10
2013-1-28,42,38,35,41,37,34,98,95,87,29.90,29.68,6,2,13,0.17
2013-1-29,58,46,34,56,46,34,99,98,94,29.67,29.38,15,3,20,1.34
2013-1-30,34,27,15,34,26,11,98,95,86,29.65,29.25,6,1,12,0.17
2013-1-31,15,8,-1,12,3,-6,90,83,77,30.22,29.65,0,0,0,0.00
2013-2-1,11,1,-7,9,-4,-11,91,79,68,30.38,30.14,10,3,12,0.00
2013-2-2,19,12,7,17,9,3,93,85,72,30.13,30.01,10,2,13,0.00
2013-2-3,20,16,9,17,12,7,93,85,71,30.05,29.95,6,2,9,0.00
2013-2-4,22,17,9,18,13,5,94,86,75,29.98,29.85,7,2,11,0.00
2013-2-5,30,21,7,27,17,1,93,85,72,30.08,29.79,8,3,14,0.00
2013-2-6,36,26,14,32,23,12,91,85,79,30.17,30.01,13,4,17,0.01
2013-2-7,35,32,26,33,31,24,98,95,88,30.03,29.85,9,2,12,0.49
2013-2-8,28,23,15,24,20,14,94,87,76,30.36,30.04,4,1,8,0.10
2013-2-9,30,25,15,28,23,14,95,92,86,30.36,30.01,19,6,25,0.00
2013-2-10,42,36,24,42,34,23,99,94,79,30.01,29.36,22,9,30,0.52
2013-2-11,36,29,23,32,25,19,91,83,78,30.01,29.41,22,8,34,0.00
2013-2-12,33,26,22,26,22,18,91,84,72,30.08,29.85,7,3,9,0.00
2013-2-13,39,32,24,33,28,23,95,87,75,29.85,29.64,6,2,9,0.00
2013-2-14,37,34,29,32,29,25,91,83,66,29.96,29.57,7,3,12,0.00
2013-2-15,29,22,14,26,13,7,88,69,53,30.20,29.97,8,3,11,0.00
2013-2-16,19,14,11,9,7,4,83,73,59,30.20,30.14,7,2,8,0.00
2013-2-17,30,20,10,23,14,3,82,74,64,30.19,29.87,15,6,19,0.00
2013-2-18,48,34,19,41,29,16,96,84,73,29.86,29.45,15,6,20,0.17
2013-2-19,18,10,4,15,6,0,88,83,78,30.25,29.61,7,3,10,0.00
2013-2-20,20,11,3,12,5,-2,86,78,68,30.41,30.26,5,1,7,0.01
2013-2-21,26,18,11,24,15,7,95,87,83,30.40,29.92,11,3,15,0.00
2013-2-22,29,26,23,27,24,22,95,93,90,29.92,29.76,6,2,12,0.01
2013-2-23,26,22,18,22,18,14,91,84,74,29.95,29.87,9,3,12,0.00
2013-2-24,32,22,12,23,17,9,93,82,65,30.11,29.95,5,1,6,0.06
2013-2-25,38,28,17,30,24,16,94,84,72,30.14,29.92,5,1,8,0.00
2013-2-26,34,32,29,29,28,26,94,86,76,29.92,29.55,15,5,23,0.01
2013-2-27,33,30,28,31,29,26,96,93,88,29.76,29.58,8,3,11,0.16
2013-2-28,36,32,27,30,28,21,94,85,73,30.08,29.77,6,2,10,0.04
2013-3-1,26,23,15,21,18,13,93,83,75,30.23,30.08,9,2,13,0.01
2013-3-2,27,18,10,16,11,7,93,75,59,30.24,30.16,5,1,9,0.00
2013-3-3,31,20,8,14,10,4,84,66,43,30.16,30.07,3,1,7,0.00
2013-3-4,33,25,19,26,19,11,86,77,68,30.09,29.93,8,3,13,0.00
2013-3-5,32,28,24,30,26,22,96,93,86,30.08,29.81,5,2,12,0.18
2013-3-6,31,27,22,25,23,19,92,85,76,30.30,30.09,5,1,10,0.27
2013-3-7,31,26,20,24,21,17,90,81,72,30.39,30.30,6,1,7,0.11
2013-3-8,35,27,17,28,23,15,94,85,75,30.42,30.23,13,4,15,0.00
2013-3-9,39,35,30,36,32,26,95,89,83,30.22,29.74,17,9,20,0.21
2013-3-10,40,38,34,40,37,34,99,97,91,29.75,29.55,11,2,14,0.90
2013-3-11,34,32,30,33,31,27,99,96,89,29.77,29.54,5,1,8,0.04
2013-3-12,33,27,23,30,23,19,93,84,72,30.03,29.78,10,4,13,0.01
2013-3-13,32,25,19,19,16,12,86,71,44,30.31,30.04,7,2,12,0.01
2013-3-14,32,26,20,30,24,17,95,88,77,30.32,30.04,11,3,13,0.03
2013-3-15,34,31,26,33,30,25,97,95,90,30.05,29.72,7,1,13,0.10
2013-3-16,32,29,26,31,25,21,97,85,75,30.12,29.71,9,2,13,0.00
2013-3-17,33,27,20,25,20,14,85,76,71,30.20,29.94,11,3,14,0.00
2013-3-18,32,26,17,31,24,12,95,89,80,29.94,29.59,10,4,20,0.19
2013-3-19,27,19,11,16,12,6,86,74,58,30.10,29.79,9,5,18,0.01
2013-3-20,22,15,8,11,6,1,80,70,61,30.14,30.04,6,3,11,0.00
2013-3-21,26,17,7,14,9,3,85,72,56,30.08,30.02,5,1,8,0.01
2013-3-22,33,24,14,20,14,9,85,68,49,30.06,30.01,4,1,5,0.00
2013-3-23,37,30,22,25,21,18,88,70,49,30.10,30.00,4,1,8,0.00
2013-3-24,32,30,28,28,26,23,95,87,79,30.02,29.73,10,3,15,0.00
2013-3-25,35,30,26,27,24,20,83,76,68,30.09,29.78,8,3,16,0.04
2013-3-26,39,33,28,28,25,23,81,72,60,30.25,30.09,5,2,9,0.00
2013-3-27,42,35,30,30,25,19,90,68,43,30.30,30.24,4,1,8,0.00
2013-3-28,48,37,27,28,25,21,85,64,43,30.33,30.24,4,1,5,0.00
2013-3-29,52,43,33,32,27,24,78,56,37,30.28,30.17,5,1,7,0.00
2013-3-30,53,44,35,43,36,26,96,73,60,30.18,29.79,13,6,22,0.00
2013-3-31,51,40,32,42,34,24,96,80,63,29.90,29.71,8,2,12,0.00
2013-4-1,37,31,26,23,19,15,76,62,46,30.19,29.90,6,2,11,0.00
2013-4-2,41,31,22,21,19,14,88,64,37,30.30,30.19,6,1,13,0.00
2013-4-3,44,33,23,27,20,14,83,59,34,30.42,30.25,9,2,11,0.00
2013-4-4,58,42,28,40,29,22,80,63,39,30.25,29.94,10,4,14,0.00
2013-4-5,50,41,31,32,27,23,82,59,36,30.18,30.01,9,3,14,0.00
2013-4-6,66,48,34,50,36,19,89,64,41,30.03,29.52,20,9,24,0.04
2013-4-7,59,47,39,45,39,35,89,74,50,29.89,29.60,8,2,11,0.00
2013-4-8,65,50,40,53,45,35,97,84,64,29.87,29.50,11,3,14,0.82
2013-4-9,48,43,38,46,42,37,97,96,92,29.90,29.76,9,4,18,1.11
2013-4-10,39,37,33,38,36,32,96,95,94,30.00,29.77,12,4,16,1.09
2013-4-11,43,39,36,42,38,35,98,96,94,29.72,29.52,20,3,21,0.28
2013-4-12,41,36,34,38,33,30,97,90,80,29.81,29.51,8,4,13,0.01
2013-4-13,43,36,31,32,30,27,86,77,64,29.94,29.80,9,3,14,0.00
2013-4-14,65,48,34,54,40,29,87,75,61,29.95,29.48,16,6,22,0.01
2013-4-15,59,49,39,53,44,36,97,84,43,29.94,29.55,12,3,19,0.78
2013-4-16,54,44,33,39,34,30,94,72,44,30.21,29.92,6,1,9,0.00
2013-4-17,44,41,39,44,38,33,97,89,73,30.23,29.75,10,3,17,1.51
2013-4-18,60,48,36,59,47,32,99,96,86,29.80,29.30,18,7,27,1.22
2013-4-19,38,35,32,33,30,27,90,83,73,29.91,29.40,15,6,21,0.01
2013-4-20,45,36,27,28,24,20,93,64,37,30.34,29.92,6,1,9,0.01
2013-4-21,53,42,33,41,33,25,79,70,57,30.43,30.20,19,10,24,0.00
2013-4-22,65,53,42,46,40,35,78,62,42,30.22,29.94,14,8,19,0.00
2013-4-23,55,42,36,47,38,31,95,88,69,29.95,29.86,9,2,16,0.33
2013-4-24,51,42,33,33,30,25,86,65,37,30.02,29.94,9,3,18,0.01
2013-4-25,51,43,35,38,31,23,91,66,38,30.24,29.98,11,4,16,0.02
2013-4-26,65,53,40,47,40,26,81,62,48,30.23,30.12,21,9,26,0.00
2013-4-27,62,55,44,49,45,42,95,72,53,30.19,29.93,10,3,14,0.00
2013-4-28,69,57,46,51,47,43,90,70,49,29.93,29.73,6,1,7,0.00
2013-4-29,74,61,50,58,53,48,94,75,51,29.80,29.61,19,7,23,0.00
2013-4-30,84,71,60,61,54,47,91,61,27,29.81,29.61,21,9,31,0.00
2013-5-1,82,70,54,58,53,44,83,58,29,30.08,29.81,12,4,15,0.00
2013-5-2,56,48,39,44,40,36,91,76,58,30.19,30.05,10,4,22,0.05
2013-5-3,48,41,36,48,40,34,98,96,91,30.14,29.89,9,3,15,0.76
2013-5-4,69,58,49,58,52,48,97,81,54,29.97,29.89,13,2,14,0.01
2013-5-5,72,61,50,55,49,43,97,68,36,29.98,29.90,8,2,11,0.00
2013-5-6,73,62,49,49,44,40,82,54,31,29.99,29.91,6,1,12,0.00
2013-5-7,76,67,57,45,39,33,61,38,21,29.98,29.90,4,0,8,0.00
2013-5-8,78,67,54,54,46,41,71,49,27,29.96,29.87,7,1,8,0.00
2013-5-9,69,62,50,61,57,49,97,85,67,29.88,29.73,8,2,15,0.82
2013-5-10,52,48,43,49,45,42,96,91,83,29.94,29.75,12,2,14,0.06
2013-5-11,55,48,39,50,38,27,98,70,39,30.03,29.80,10,3,15,0.03
2013-5-12,55,44,34,31,28,24,85,56,32,30.10,30.03,8,1,11,0.00
2013-5-13,65,52,36,40,31,25,80,48,24,30.13,29.86,8,2,15,0.00
2013-5-14,90,72,53,60,50,40,72,49,19,29.85,29.51,16,6,17,0.00
2013-5-15,80,71,60,58,48,41,64,46,25,29.77,29.54,5,1,9,0.00
2013-5-16,82,70,56,50,45,39,74,45,22,29.86,29.76,8,1,10,0.00
2013-5-17,74,65,59,58,50,41,68,59,48,29.93,29.84,6,1,10,0.00
2013-5-18,80,68,54,63,56,47,82,66,49,29.95,29.82,9,3,11,0.00
2013-5-19,86,72,62,68,62,55,93,71,48,29.86,29.55,22,6,24,0.16
2013-5-20,80,70,61,64,61,57,96,73,47,29.68,29.47,20,6,21,0.28
2013-5-21,74,68,61,62,58,55,92,73,53,29.59,29.53,12,5,17,0.00
2013-5-22,71,62,56,61,56,52,94,80,54,29.68,29.54,7,2,13,0.03
2013-5-23,63,56,48,56,48,38,96,77,49,30.22,29.68,9,1,18,0.26
2013-5-24,65,52,37,41,36,32,93,58,30,30.39,30.22,4,1,8,0.00
2013-5-25,55,50,45,46,41,37,88,72,56,30.32,30.22,7,1,9,0.10
2013-5-26,56,52,44,53,46,37,96,81,62,30.22,30.04,10,1,19,0.30
2013-5-27,60,56,51,59,55,50,98,97,94,30.03,29.77,5,0,7,0.01
2013-5-28,76,64,54,72,63,53,99,95,86,29.78,29.61,7,2,11,0.40
2013-5-29,80,72,62,71,65,58,96,81,65,29.83,29.67,11,3,14,0.00
2013-5-30,81,72,62,70,65,60,95,81,65,29.77,29.58,18,8,30,0.33
2013-5-31,73,67,62,66,63,60,96,89,69,29.71,29.57,16,7,25,0.00
2013-6-1,75,68,62,66,62,57,98,84,54,29.65,29.55,9,3,14,0.00
2013-6-2,61,56,49,58,48,44,92,77,60,29.97,29.65,4,0,12,0.00
2013-6-3,69,58,48,49,46,43,90,66,41,30.05,29.94,4,1,6,0.00
2013-6-4,69,61,54,54,48,38,83,64,34,30.09,29.97,8,1,12,0.01
2013-6-5,65,58,53,59,54,47,97,85,68,30.02,29.87,6,1,8,0.34
2013-6-6,61,56,53,56,54,50,97,91,82,29.88,29.82,5,0,8,0.01
2013-6-7,69,61,54,55,52,48,94,75,57,29.91,29.84,4,0,10,0.00
2013-6-8,72,64,54,50,47,43,78,57,39,29.91,29.86,5,1,9,0.00
2013-6-9,78,67,59,63,56,45,95,71,52,29.89,29.70,13,3,18,0.19
2013-6-10,78,68,58,64,61,57,98,81,55,29.79,29.68,7,1,8,0.01
2013-6-11,82,71,60,66,62,57,95,75,43,29.84,29.72,7,1,15,0.00
2013-6-12,85,73,65,74,67,64,96,83,67,29.82,29.51,12,1,17,0.34
2013-6-13,79,69,58,64,58,54,96,69,44,29.95,29.61,4,1,10,0.00
2013-6-14,77,67,53,59,55,50,92,69,44,30.07,29.89,6,1,9,0.00
2013-6-15,80,70,60,69,63,56,94,81,65,29.95,29.74,13,3,23,0.10
2013-6-16,84,74,65,67,58,51,94,62,33,29.84,29.79,6,1,10,0.00
2013-6-17,86,75,63,60,56,53,77,54,34,29.85,29.76,5,0,8,0.00
2013-6-18,75,65,57,59,54,50,85,69,53,30.00,29.83,6,1,13,0.00
2013-6-19,80,67,52,57,51,43,80,59,40,30.06,29.97,5,0,6,0.00
2013-6-20,86,74,59,62,57,52,78,57,41,30.05,29.93,7,2,13,0.00
2013-6-21,77,71,64,67,64,61,96,79,58,30.03,29.74,16,4,21,0.49
2013-6-22,82,72,65,75,68,64,98,87,64,30.05,29.82,10,4,15,2.72
2013-6-23,82,73,66,74,68,63,93,84,65,29.95,29.77,9,3,13,0.01
2013-6-24,78,69,65,69,66,63,97,91,72,29.96,29.77,10,3,17,0.42
2013-6-25,80,72,64,76,69,63,99,92,82,29.86,29.70,6,1,12,2.00
2013-6-26,81,74,68,73,70,67,97,88,72,29.70,29.61,7,1,8,0.04
2013-6-27,86,76,67,73,68,61,98,77,47,29.73,29.63,8,1,12,0.00
2013-6-28,79,70,63,64,62,59,93,76,55,29.68,29.56,5,0,11,0.00
2013-6-29,69,65,62,66,62,59,97,91,83,29.74,29.54,6,1,11,0.50
2013-6-30,77,67,59,62,58,53,92,72,50,29.96,29.74,7,1,13,0.00
2013-7-1,77,66,56,57,53,50,85,65,43,30.03,29.95,7,1,14,0.00
2013-7-2,75,65,55,58,53,46,88,68,39,30.04,29.97,6,0,11,0.00
2013-7-3,71,62,52,62,56,51,96,83,71,30.12,29.96,2,0,4,0.00
2013-7-4,80,70,58,65,61,57,96,73,52,30.11,30.02,5,1,8,0.00
2013-7-5,82,73,62,66,63,59,90,73,54,30.09,30.01,7,3,10,0.00
2013-7-6,83,72,63,68,64,60,92,76,57,30.06,29.96,7,2,8,0.00
2013-7-7,86,76,66,73,69,65,96,79,59,29.99,29.92,6,2,8,0.00
2013-7-8,86,76,70,77,71,68,95,86,73,29.99,29.93,8,3,14,0.50
2013-7-9,82,76,71,77,73,70,97,90,78,29.99,29.87,7,2,11,0.08
2013-7-10,79,73,64,74,66,59,97,78,53,30.04,29.87,3,0,10,0.00
2013-7-11,79,69,59,63,59,56,92,72,47,30.15,30.04,3,0,8,0.00
2013-7-12,81,70,59,63,58,49,85,67,44,30.18,30.09,4,0,6,0.00
2013-7-13,80,71,61,65,61,55,90,71,52,30.18,30.10,5,1,7,0.00
2013-7-14,84,75,62,71,66,59,92,76,61,30.23,30.15,4,1,7,0.00
2013-7-15,88,78,69,75,71,66,91,79,60,30.28,30.20,4,0,5,0.00
2013-7-16,88,80,72,77,74,71,96,83,66,30.30,30.24,4,1,9,0.00
2013-7-17,90,81,73,76,74,71,95,80,61,30.32,30.18,4,1,7,0.00
2013-7-18,89,81,73,76,74,72,95,79,60,30.19,29.94,11,2,12,0.00
2013-7-19,88,80,72,75,72,66,92,76,61,29.93,29.77,10,3,15,0.00
2013-7-20,84,73,62,69,65,61,95,78,53,29.95,29.85,3,0,7,0.00
2013-7-21,82,70,62,71,65,61,95,85,67,29.97,29.88,3,1,10,0.02
2013-7-22,84,72,62,73,67,61,98,84,65,29.91,29.74,7,1,21,0.11
2013-7-23,76,67,58,62,59,55,97,76,51,30.01,29.75,8,1,12,0.01
2013-7-24,73,64,53,58,54,52,97,74,53,30.11,30.01,3,0,9,0.00
2013-7-25,78,67,55,64,58,52,90,75,58,30.12,30.02,7,1,11,0.00
2013-7-26,75,66,58,70,62,55,97,87,61,30.02,29.87,7,2,12,0.26
2013-7-27,62,57,53,55,50,47,94,79,60,30.00,29.95,4,0,11,0.00
2013-7-28,67,58,50,54,51,48,94,77,59,30.09,29.92,9,0,9,0.00
2013-7-29,76,62,50,60,55,48,97,79,54,30.19,30.09,3,0,7,0.00
2013-7-30,69,63,58,64,60,56,97,91,82,30.19,30.10,5,0,8,0.02
2013-7-31,77,68,62,67,64,61,98,88,70,30.10,29.99,4,0,7,0.00
2013-8-1,78,65,55,62,58,54,96,80,44,30.05,29.94,3,0,9,0.02
2013-8-2,81,69,63,68,62,58,94,79,55,29.99,29.88,3,0,7,0.00
2013-8-3,78,68,57,59,55,51,91,67,42,30.17,29.99,4,0,6,0.00
2013-8-4,76,66,52,59,55,50,94,70,43,30.24,30.13,3,0,7,0.00
2013-8-5,70,64,58,66,60,55,97,88,76,30.13,29.88,9,2,16,0.65
2013-8-6,81,72,66,73,69,64,98,92,73,29.92,29.82,5,1,8,0.07
2013-8-7,82,73,63,71,67,61,98,82,56,29.98,29.79,4,1,13,0.01
2013-8-8,77,68,58,65,62,57,97,82,59,30.07,29.98,5,0,7,0.00
2013-8-9,79,69,61,67,62,56,89,79,64,30.09,30.01,3,0,7,0.00
2013-8-10,76,66,54,61,56,52,96,73,46,30.19,30.10,3,0,6,0.00
2013-8-11,78,68,57,68,62,55,93,83,67,30.17,30.05,5,0,11,0.00
2013-8-12,80,71,63,69,64,58,94,79,58,30.05,29.92,4,0,8,0.00
2013-8-13,70,62,54,57,51,48,94,71,46,30.19,29.99,5,1,14,0.00
2013-8-14,72,61,48,57,52,46,96,75,47,30.27,30.17,2,0,5,0.00
2013-8-15,74,63,56,58,55,52,89,74,47,30.20,30.14,3,0,7,0.00
2013-8-16,78,66,54,60,56,52,93,70,43,30.23,30.17,4,0,6,0.00
2013-8-17,79,68,54,60,55,52,92,68,43,30.27,30.18,3,0,7,0.00
2013-8-18,79,68,56,61,57,53,94,70,46,30.25,30.12,4,0,6,0.00
2013-8-19,81,70,60,66,62,57,92,76,54,30.14,30.05,5,1,10,0.00
2013-8-20,83,73,63,69,65,61,95,77,54,30.11,30.02,6,2,14,0.00
2013-8-21,86,76,65,71,68,63,94,77,56,30.07,29.97,9,3,15,0.00
2013-8-22,73,69,64,69,67,63,97,92,84,30.15,30.00,10,1,10,0.62
2013-8-23,81,70,59,64,60,52,99,74,48,30.21,30.13,4,0,7,0.01
2013-8-24,83,71,58,69,62,52,93,75,58,30.27,30.17,7,2,7,0.00
2013-8-25,87,76,67,70,67,65,92,75,48,30.23,30.12,11,3,15,0.00
2013-8-26,88,76,66,76,70,64,93,80,63,30.15,29.99,8,2,13,0.00
2013-8-27,91,80,71,75,72,68,91,76,57,30.00,29.84,8,3,14,0.00
2013-8-28,83,76,70,74,71,68,94,85,72,30.05,29.85,5,0,8,0.00
2013-8-29,85,73,65,74,68,64,98,85,57,30.11,29.99,3,0,6,0.00
2013-8-30,94,78,69,77,72,68,97,83,52,29.98,29.76,8,1,9,2.19
2013-8-31,79,71,65,72,68,64,97,89,76,29.88,29.81,4,0,9,0.01
2013-9-1,84,72,62,74,67,60,99,86,64,29.87,29.75,5,0,6,0.00
2013-9-2,73,64,55,60,58,53,95,82,57,30.04,29.87,6,0,9,0.00
2013-9-3,73,61,49,59,54,48,98,80,52,30.15,30.04,5,0,6,0.01
2013-9-4,82,68,54,68,60,53,96,79,53,30.16,30.08,4,0,7,0.00
2013-9-5,76,68,60,64,62,54,98,81,63,30.26,30.13,4,0,7,0.00
2013-9-6,84,70,58,66,60,51,87,71,53,30.23,30.01,5,1,8,0.00
2013-9-7,87,75,64,72,66,61,92,76,56,30.02,29.89,7,2,11,0.00
2013-9-8,75,70,66,69,66,63,93,89,80,30.04,29.94,5,0,10,0.00
2013-9-9,92,79,66,76,70,64,98,78,54,29.95,29.80,5,2,9,0.00
2013-9-10,92,81,71,68,64,61,76,58,35,29.98,29.87,9,3,16,0.00
2013-9-11,82,73,66,70,66,62,92,77,62,30.07,29.97,5,0,7,0.01
2013-9-12,74,65,57,63,56,50,96,74,45,30.15,30.01,6,1,16,0.01
2013-9-13,67,56,44,49,43,36,93,65,33,30.26,30.15,4,0,12,0.00
2013-9-14,70,57,44,49,45,41,96,67,40,30.23,30.03,8,2,10,0.00
2013-9-15,58,55,52,56,52,45,97,90,62,30.25,30.00,4,1,8,0.52
2013-9-16,67,56,48,53,48,43,98,77,50,30.43,30.25,5,1,12,0.01
2013-9-17,67,56,43,57,51,42,97,83,63,30.38,30.12,7,2,10,0.01
2013-9-18,76,67,58,69,62,55,96,86,78,30.12,29.89,7,3,12,0.44
2013-9-19,88,74,66,72,68,65,96,84,52,29.92,29.74,10,3,19,0.59
2013-9-20,68,63,54,65,59,52,97,86,62,29.90,29.78,5,1,10,0.01
2013-9-21,64,55,48,52,49,47,97,82,58,30.00,29.89,3,0,8,0.00
2013-9-22,67,55,42,51,47,41,98,78,51,30.11,30.01,2,0,5,0.01
2013-9-23,70,56,46,53,49,44,96,77,49,30.15,30.04,4,0,7,0.00
2013-9-24,72,59,48,55,50,45,94,76,48,30.06,29.96,7,1,9,0.00
2013-9-25,73,59,47,56,50,46,97,76,43,30.02,29.95,3,0,8,0.00
2013-9-26,78,62,48,58,52,47,98,75,46,30.09,30.00,4,1,8,0.00
2013-9-27,80,66,52,56,50,46,94,62,30,30.16,30.04,7,2,11,0.00
2013-9-28,79,65,54,66,57,50,96,78,54,30.05,29.88,12,4,23,0.34
2013-9-29,71,57,45,55,46,42,99,73,37,30.12,30.02,2,0,5,0.01
2013-9-30,75,60,47,52,46,41,91,64,37,30.04,29.86,7,3,12,0.00
2013-10-1,80,66,54,63,58,52,97,79,54,30.00,29.89,8,3,17,0.00
2013-10-2,74,59,54,57,52,43,94,80,34,30.13,30.00,2,0,6,0.00
2013-10-3,75,71,67,70,68,63,94,89,83,29.89,29.84,12,2,12,0.99
2013-10-4,69,66,63,68,65,62,98,96,85,30.04,29.88,6,1,14,0.77
2013-10-5,73,67,54,71,64,47,99,90,68,29.93,29.77,11,2,13,0.04
2013-10-6,54,47,41,46,41,39,96,81,59,29.84,29.75,6,1,13,0.01
2013-10-7,70,54,40,49,45,39,98,75,43,30.13,29.82,4,0,12,0.00
2013-10-8,76,60,47,51,46,43,87,62,31,30.20,30.12,9,2,13,0.00
2013-10-9,74,60,50,50,44,34,87,60,24,30.24,30.14,5,2,9,0.00
2013-10-10,74,60,46,54,50,44,94,70,44,30.20,30.05,8,1,8,0.00
2013-10-11,76,64,54,59,54,51,91,72,48,30.06,29.91,13,3,15,0.00
2013-10-12,68,60,48,59,50,40,88,70,41,30.21,29.91,8,3,13,0.00
2013-10-13,62,50,40,43,37,33,88,63,34,30.46,30.22,2,0,9,0.00
2013-10-14,63,50,38,46,40,34,88,70,48,30.46,30.13,4,1,8,0.00
2013-10-15,63,53,48,59,48,42,97,84,65,30.12,29.79,10,4,13,0.28
2013-10-16,50,48,46,47,45,43,96,89,80,30.00,29.86,9,2,13,0.00
2013-10-17,55,47,43,46,42,36,97,84,53,29.98,29.88,3,0,8,0.15
2013-10-18,48,44,39,42,38,36,94,81,65,30.01,29.88,4,1,9,0.01
2013-10-19,51,41,34,40,36,32,94,84,52,29.98,29.82,8,2,18,0.04
2013-10-20,55,43,33,47,39,32,98,87,66,29.91,29.78,7,1,10,0.01
2013-10-21,47,39,30,43,31,24,89,73,49,30.04,29.85,6,1,10,0.01
2013-10-22,41,33,26,33,29,24,94,85,67,30.06,29.99,2,0,5,0.00
2013-10-23,43,35,26,33,28,24,96,78,55,30.11,30.04,5,0,9,0.00
2013-10-24,42,34,29,28,26,23,83,72,53,30.39,30.11,4,0,7,0.00
2013-10-25,51,38,26,32,26,22,91,65,39,30.46,30.07,17,4,20,0.00
2013-10-26,54,44,33,36,30,26,80,58,44,30.15,29.91,14,3,21,0.06
2013-10-27,53,41,29,33,29,26,90,65,40,30.14,29.99,15,4,18,0.00
2013-10-28,46,40,32,37,33,28,89,76,62,30.43,30.09,8,2,17,0.00
2013-10-29,58,45,34,41,36,30,91,72,45,30.43,30.16,7,1,16,0.00
2013-10-30,58,52,46,57,50,40,99,94,74,30.16,29.77,24,3,33,0.21
2013-10-31,61,54,42,60,53,40,98,97,92,29.76,29.34,13,6,21,0.40
2013-11-1,46,43,38,43,40,36,94,90,84,29.82,29.45,11,2,16,0.01
2013-11-2,47,39,34,37,34,30,96,83,65,30.22,29.82,8,1,15,0.00
2013-11-3,50,40,30,38,33,28,95,77,54,30.35,30.22,10,2,17,0.01
2013-11-4,54,48,41,45,40,35,83,75,62,30.24,30.09,18,8,27,0.00
2013-11-5,52,50,48,52,48,44,97,91,83,30.28,29.91,22,5,32,0.21
2013-11-6,55,43,31,54,39,26,98,88,69,30.26,29.76,18,6,24,0.24
2013-11-7,40,32,27,32,28,23,90,85,74,30.34,30.26,10,2,13,0.00
2013-11-8,46,37,27,36,30,25,93,77,55,30.38,29.88,27,6,30,0.00
2013-11-9,53,46,37,41,37,27,82,69,60,30.20,29.86,19,8,27,0.00
2013-11-10,47,39,30,33,30,26,89,72,54,30.42,30.20,9,4,15,0.00
2013-11-11,44,34,20,35,28,15,95,80,68,30.65,30.14,11,4,17,0.05
2013-11-12,29,21,15,19,15,11,84,77,57,30.83,30.65,9,2,13,0.01
2013-11-13,40,28,16,21,17,13,86,65,41,30.69,30.18,19,10,26,0.01
2013-11-14,47,38,28,30,26,20,75,63,51,30.18,29.97,19,8,23,0.00
2013-11-15,52,42,34,36,32,28,85,68,49,30.01,29.92,11,7,17,0.00
2013-11-16,57,49,37,55,47,34,97,93,84,29.92,29.53,28,15,37,0.08
2013-11-17,65,51,39,61,48,35,97,90,81,29.81,29.18,23,10,32,0.19
2013-11-18,40,34,27,34,28,24,88,78,60,30.34,29.81,19,8,27,0.00
2013-11-19,40,31,23,29,26,21,92,81,62,30.43,30.30,10,3,17,0.00
2013-11-20,39,35,31,36,31,28,96,87,76,30.30,30.13,19,7,23,0.22
2013-11-21,42,39,37,40,38,36,97,94,89,30.32,30.15,6,1,11,0.00
2013-11-22,38,31,22,36,26,16,95,84,68,30.57,30.32,12,4,20,0.03
2013-11-23,22,18,9,17,9,4,85,70,53,30.83,30.54,15,4,22,0.00
2013-11-24,26,16,7,11,7,4,87,68,42,30.82,30.42,17,6,22,0.00
2013-11-25,30,26,19,27,22,12,94,83,67,30.41,30.15,20,9,25,0.00
2013-11-26,31,25,12,27,18,3,89,76,60,30.32,30.12,12,4,20,0.00
2013-11-27,21,11,8,15,2,-100,79,73,69,30.38,30.23,8,-25,12,0.00
2013-11-28,28,22,18,18,15,12,85,74,65,30.50,30.15,14,4,20,0.00
2013-11-29,31,24,14,23,17,11,91,76,64,30.61,30.34,13,5,17,0.00
2013-11-30,45,35,26,34,28,22,89,78,63,30.34,30.02,13,6,18,0.00
2013-12-1,40,34,29,30,28,26,91,80,67,30.12,29.95,5,1,10,0.00
2013-12-2,39,34,27,33,30,25,96,88,74,29.94,29.68,13,4,15,0.04
2013-12-3,42,38,34,42,38,33,99,98,96,29.68,29.61,9,3,13,0.02
2013-12-4,49,42,30,49,41,28,99,98,93,29.67,29.43,17,6,32,0.02
2013-12-5,30,20,14,28,15,9,94,82,72,30.28,29.67,17,8,29,0.00
2013-12-6,17,11,7,10,6,3,84,78,67,30.60,30.27,11,4,17,0.00
2013-12-7,15,8,2,5,2,-2,85,75,56,30.74,30.60,9,2,13,0.00
2013-12-8,21,16,10,19,12,3,95,84,70,30.63,29.96,11,3,14,0.00
2013-12-9,20,8,-6,19,4,-10,95,84,70,30.23,29.95,15,6,22,0.00
2013-12-10,17,9,-6,12,4,-10,89,79,68,30.29,29.99,17,8,25,0.00
2013-12-11,14,7,-6,12,2,-11,92,80,61,30.58,30.27,14,4,17,0.00
2013-12-12,16,8,-7,10,2,-11,86,79,70,30.54,30.21,18,6,19,0.00
2013-12-13,25,20,12,22,16,10,90,85,73,30.20,30.08,14,4,18,0.00
2013-12-14,25,22,17,22,19,14,94,89,82,30.11,29.97,13,4,17,0.00
2013-12-15,18,10,6,15,5,2,85,78,72,30.14,29.96,15,5,25,0.00
2013-12-16,16,11,6,14,6,-1,93,81,66,30.16,30.02,7,2,11,0.00
2013-12-17,33,23,16,26,18,12,94,83,62,30.11,29.96,17,7,27,0.05
2013-12-18,32,23,12,26,18,10,90,79,61,30.13,29.78,22,9,28,0.00
2013-12-19,32,30,25,31,27,23,96,90,82,29.91,29.78,11,4,17,0.00
2013-12-20,32,24,22,31,23,21,96,95,94,29.83,29.75,10,3,19,0.00
2013-12-21,27,25,23,26,24,22,97,96,96,29.86,29.65,8,2,16,0.00
2013-12-22,27,25,20,26,23,17,97,94,91,30.13,29.65,8,1,14,0.06
2013-12-23,18,2,-8,17,-1,-12,93,86,81,30.50,30.14,0,0,0,0.00
2013-12-24,15,-3,-12,12,-6,-16,91,85,80,30.61,30.33,0,0,0,0.00
2013-12-25,23,19,14,22,17,11,94,91,85,30.32,30.11,11,5,15,0.00
2013-12-26,28,22,11,25,18,8,91,87,82,30.23,30.13,12,4,15,0.00
2013-12-27,37,27,16,30,24,14,96,89,76,30.25,30.05,17,6,20,0.01
2013-12-28,41,35,28,34,30,26,95,83,68,30.06,29.74,17,9,21,0.11
2013-12-29,40,21,-4,31,16,-9,94,83,69,30.25,29.71,15,6,24,0.00
2013-12-30,3,-3,-10,0,-8,-16,87,77,64,30.35,30.24,5,1,9,0.00
2013-12-31,7,3,-4,4,0,-7,89,87,86,30.37,30.24,5,1,10,0.00
2014-1-1,10,6,2,7,3,-1,88,86,82,30.33,30.26,11,4,17,0.00
2014-1-2,12,7,-2,6,2,-8,84,80,74,30.46,30.26,11,2,16,0.00